Location: ??? ?????
(30.6482°N, 60.5850°E)
Time: 21:48:25
(UTC+00:00)

Cosmos 2369 Rocket - Pass Details

Date: 09 April 2020
Orbit: 829 x 852 km, 71.0° (Epoch: 24 May)

Event Time Altitude Azimuth Distance (km) Brightness Sun altitude
Rises 15:23:56 0° 334° (NNW) 3,407 6.1 -13.8°
Reaches altitude 10° 15:26:26 10° 330° (NNW) 2,465 5.3 -14.3°
Maximum altitude 15:31:55 54° 254° (WSW) 1,010 2.9 -15.4°
Drops below altitude 10° 15:37:21 10° 178° (S) 2,437 4.4 -16.5°
Sets 15:39:49 0° 174° (S) 3,365 5.1 -17.0°
